This demonstration page uses our WeatherBlox Daily Observations layout. Learn more.

Left ArrowRight Arrow

Hourly Observations for July 30, 2016

Temp ( °F °C ) Dew Point ( °F °C ) Humidity (%) Winds ( mph kmh ) Pressure ( in mb ) Visibility ( mi km ) Precip ( " mm )
12:18 am 00:18 Clear 66 19 66 19 100 100 SSE 3 6 29.91 1013 2 3 N/A
12:38 am 00:38 Clear 66 19 66 19 100 100 N N/A 29.91 1013 3 5 N/A
12:58 am 00:58 Mostly Cloudy 66 19 66 19 100 100 N N/A 29.91 1013 1 1 N/A
1:18 am 01:18 Mostly Cloudy 64 18 64 18 100 100 N N/A 29.91 1013 1 1 N/A
1:38 am 01:38 Clear 64 18 64 18 100 100 N N/A 29.91 1013 3 5 N/A
1:58 am 01:58 Cloudy 64 18 64 18 100 100 N N/A 29.91 1013 0 0 N/A
2:18 am 02:18 Cloudy 64 18 64 18 100 100 N N/A 29.91 1013 0 0 N/A
2:37 am 02:37 Mostly Cloudy 64 18 64 18 100 100 N N/A 29.91 1013 1 1 N/A
2:58 am 02:58 Mostly Cloudy 64 18 64 18 100 100 N N/A 29.91 1013 0 0 N/A
3:18 am 03:18 Cloudy 64 18 64 18 100 100 N N/A 29.91 1013 0 0 N/A
3:37 am 03:37 Cloudy 64 18 64 18 100 100 N N/A 29.91 1013 1 1 N/A
3:58 am 03:58 Cloudy 64 18 63 17 94 94 N N/A 29.91 1013 1 1 N/A
4:18 am 04:18 Mostly Cloudy 64 18 63 17 94 94 N N/A 29.91 1013 1 1 N/A
4:38 am 04:38 Cloudy 63 17 63 17 100 100 N N/A 29.91 1013 0 0 N/A
4:58 am 04:58 Cloudy 63 17 63 17 100 100 N N/A 29.91 1013 0 0 N/A
5:18 am 05:18 Cloudy 63 17 63 17 100 100 N N/A 29.94 1014 1 1 N/A
5:38 am 05:38 Cloudy 63 17 63 17 100 100 N N/A 29.94 1014 1 1 N/A
5:58 am 05:58 Cloudy 63 17 63 17 100 100 N N/A 29.94 1014 1 1 N/A
6:18 am 06:18 Cloudy 63 17 63 17 100 100 N N/A 29.94 1014 1 1 N/A
6:38 am 06:38 Cloudy 63 17 63 17 100 100 N N/A 29.94 1014 1 1 N/A
6:58 am 06:58 Cloudy 63 17 63 17 100 100 N N/A 29.94 1014 1 1 N/A
7:18 am 07:18 Cloudy 63 17 63 17 100 100 N N/A 29.94 1014 5 8 N/A
7:38 am 07:38 Cloudy 64 18 64 18 100 100 N N/A 29.97 1015 5 8 N/A
7:58 am 07:58 Cloudy 64 18 64 18 100 100 N N/A 29.97 1015 5 8 N/A
8:19 am 08:19 Cloudy 66 19 66 19 100 100 N N/A 29.97 1015 0 0 N/A
8:38 am 08:38 Cloudy 66 19 66 19 100 100 N N/A 29.97 1015 0 0 N/A
8:58 am 08:58 Cloudy 68 20 68 20 100 100 N N/A 29.97 1015 1 1 N/A
9:17 am 09:17 Partly Cloudy 70 21 70 21 100 100 N N/A 29.94 1014 5 8 N/A
9:38 am 09:38 Sunny 72 22 72 22 100 100 W 3 6 29.94 1014 10 16 N/A
9:58 am 09:58 Sunny 73 23 72 22 94 94 WSW 6 9 29.94 1014 10 16 N/A
10:18 am 10:18 Sunny 75 24 70 21 83 83 WSW 7 11 29.94 1014 10 16 N/A
10:38 am 10:38 Sunny 75 24 70 21 83 83 W 8 13 29.94 1014 10 16 N/A
10:58 am 10:58 Sunny 75 24 70 21 83 83 W 12 19 29.94 1014 10 16 N/A
11:18 am 11:18 Sunny 79 26 68 20 70 70 W 10 17 29.94 1014 10 16 N/A
11:38 am 11:38 Partly Cloudy 77 25 68 20 74 74 WNW 9 15 29.94 1014 10 16 N/A
11:58 am 11:58 Partly Cloudy 81 27 68 20 66 66 WNW 8 13 29.94 1014 10 16 N/A
12:18 pm 12:18 Sunny 81 27 68 20 66 66 W 7 11 29.94 1014 10 16 N/A
12:38 pm 12:38 Partly Cloudy 82 28 68 20 62 62 WSW 6 9 29.94 1014 10 16 N/A
12:58 pm 12:58 Partly Cloudy 82 28 66 19 58 58 W 6 9 29.94 1014 10 16 N/A
1:18 pm 13:18 Partly Cloudy 82 28 64 18 55 55 WNW 5 7 29.94 1014 10 16 N/A
1:38 pm 13:38 Partly Cloudy 82 28 64 18 55 55 WNW 5 7 29.94 1014 10 16 N/A
1:58 pm 13:58 Mostly Cloudy 82 28 64 18 55 55 W 6 9 29.94 1014 10 16 N/A
2:18 pm 14:18 Mostly Cloudy 82 28 66 19 58 58 W 7 11 29.94 1014 10 16 N/A
2:38 pm 14:38 Partly Cloudy 84 29 64 18 51 51 W 6 9 29.94 1014 10 16 N/A
2:58 pm 14:58 Partly Cloudy 84 29 63 17 48 48 W 8 13 29.94 1014 10 16 N/A
3:18 pm 15:18 Sunny 84 29 63 17 48 48 W 8 13 29.94 1014 10 16 N/A
3:38 pm 15:38 Sunny 84 29 63 17 48 48 W 8 13 29.91 1013 10 16 N/A
3:58 pm 15:58 Sunny 84 29 66 19 55 55 W 9 15 29.91 1013 10 16 N/A
4:18 pm 16:18 Mostly Cloudy 82 28 64 18 55 55 W 5 7 29.91 1013 10 16 N/A
4:38 pm 16:38 Cloudy 82 28 66 19 58 58 W 5 7 29.91 1013 10 16 N/A
4:58 pm 16:58 Mostly Cloudy 84 29 66 19 55 55 WNW 9 15 29.91 1013 10 16 N/A
5:18 pm 17:18 Mostly Cloudy 84 29 66 19 55 55 W 7 11 29.91 1013 10 16 N/A
5:38 pm 17:38 Partly Cloudy 82 28 64 18 55 55 WNW 9 15 29.91 1013 10 16 N/A
5:58 pm 17:58 Sunny 82 28 64 18 55 55 W 9 15 29.91 1013 10 16 N/A
6:18 pm 18:18 Partly Cloudy 81 27 64 18 58 58 WNW 9 15 29.91 1013 10 16 N/A
6:38 pm 18:38 Mostly Cloudy 81 27 66 19 62 62 W 6 9 29.94 1014 10 16 N/A
6:58 pm 18:58 Mostly Cloudy 82 28 66 19 58 58 WNW 8 13 29.91 1013 10 16 N/A
7:18 pm 19:18 Partly Cloudy 81 27 64 18 58 58 W 8 13 29.91 1013 10 16 N/A
7:37 pm 19:37 Sunny 82 28 64 18 55 55 W 5 7 29.91 1013 10 16 N/A
7:58 pm 19:58 Sunny 81 27 64 18 58 58 WNW 7 11 29.94 1014 10 16 N/A
8:18 pm 20:18 Sunny 79 26 64 18 61 61 WNW 6 9 29.91 1013 10 16 N/A
8:37 pm 20:37 Sunny 77 25 64 18 65 65 W 7 11 29.94 1014 10 16 N/A
8:58 pm 20:58 Sunny 73 23 64 18 74 74 N N/A 29.91 1013 10 16 N/A
9:18 pm 21:18 Clear 72 22 66 19 83 83 N N/A 29.94 1014 10 16 N/A
9:38 pm 21:38 Clear 72 22 64 18 78 78 WNW 6 9 29.94 1014 10 16 N/A
9:58 pm 21:58 Partly Cloudy 68 20 66 19 94 94 W 3 6 29.97 1015 10 16 N/A
10:18 pm 22:18 Partly Cloudy 70 21 66 19 88 88 W 5 7 29.97 1015 10 16 N/A
10:37 pm 22:37 Clear 70 21 64 18 83 83 W 5 7 29.97 1015 10 16 N/A
10:58 pm 22:58 Clear 70 21 64 18 83 83 W 5 7 29.97 1015 10 16 N/A
11:18 pm 23:18 Clear 68 20 64 18 88 88 W 3 6 30.00 1016 10 16 N/A
11:37 pm 23:37 Clear 70 21 64 18 83 83 N N/A 29.97 1015 10 16 N/A
11:58 pm 23:58 Clear 66 19 64 18 94 94 N N/A 30.00 1016 10 16 N/A

Powered by AerisWeather